Flag for Canada Weather past 2 weeks in Steinbach, Manitoba, Canada

Now
44 °F

Quite cool.


Feels Like: 41 °F
Forecast: 40 / 54 °F
Wind: 5 mph from West

Location: Winnipeg The Forks

Current Time: Oct 25, 2014 at 7:55:52 AM

Latest Report: Oct 25, 2014 at 7:00 AM


Visibility: N/A

Pressure: 29.93 "Hg

Humidity: 59%

Dew point: 30 °F

Location of SteinbachLocation

Historic Weather in Steinbach — Graph

°F

Steinbach temperature yesterday

Maximum temperature yesterday: 68 °F (at 3:00 PM)
Minimum temperature yesterday: 49 °F (at 5:00 AM)
Average temperature yesterday: 56 °F

Past Weeks' High & Low Weather Summary

 TemperatureHumidityPressure
High68 °F (Oct 15, 3:00 PM)89% (Oct 22, 8:00 PM)30.30 "Hg (Oct 22, 8:00 PM)
Low33 °F (Oct 10, 6:00 AM)28% (Oct 24, 4:00 PM)29.47 "Hg (Oct 16, 12:00 PM)
Average51 °F64%29.86 "Hg
* Reported Oct 10 6:00 AM — Oct 25 6:00 AM, Steinbach, Weather by CustomWeather, © 2014

Note: Actual official high and low records may vary slightly from our data, if they occured in-between our weather recording intervals... More about our weather records

Advertising

Steinbach weather history for previous 24 hours

 ConditionsComfort  
Time TempWeatherWind HumidityBarometerVisibility
6:00 AM
Oct 25
44 °FQuite cool.6 mph59%29.90 "HgN/A
5:00 AM45 °FCool.6 mph63%29.89 "HgN/A
4:00 AM46 °FCool.6 mph55%29.88 "HgN/A
3:00 AM47 °FCool.3 mph58%29.87 "HgN/A
2:00 AM47 °FCool.3 mph55%29.86 "HgN/A
1:00 AM49 °FCool.5 mph51%29.85 "HgN/A
12:00 AM49 °FCool.5 mph55%29.82 "HgN/A
11:00 PM
Oct 24
52 °FCool.5 mph49%29.79 "HgN/A
10:00 PM55 °FRefreshingly cool.7 mph41%29.76 "HgN/A
9:00 PM57 °FRefreshingly cool.9 mph38%29.74 "HgN/A
8:00 PM59 °FRefreshingly cool.6 mph36%29.71 "HgN/A
7:00 PM60 °FRefreshingly cool.6 mph34%29.70 "HgN/A
6:00 PM62 °FRefreshingly cool.8 mph37%29.68 "HgN/A
5:00 PM65 °FMild.9 mph33%29.65 "HgN/A
4:00 PM68 °FMild.8 mph28%29.61 "HgN/A
3:00 PM68 °FMild.7 mph36%29.59 "HgN/A
2:00 PM66 °FMild.7 mph41%29.60 "HgN/A
1:00 PM62 °FRefreshingly cool.7 mph53%29.62 "HgN/A
12:00 PM57 °FRefreshingly cool.8 mph56%29.64 "HgN/A
11:00 AM53 °FCool.6 mph61%29.66 "HgN/A
10:00 AM51 °FCool.6 mph61%29.66 "HgN/A
9:00 AM49 °FCool.5 mph65%29.66 "HgN/A
8:00 AM49 °FCool.6 mph64%29.65 "HgN/A
7:00 AM49 °FCool.6 mph57%29.66 "HgN/A
Weather by CustomWeather, © 2014

See weather overviewHow to use our weather pages